Weather Roundup
Issued by NWS

Home | Current Version | Previous Version | Text Only | Print | Product List | Glossary On
Versions: 1 2 3 4 5 6 7 8 9 10 11 12 13 14 15 16 17 18 19 20 21 22 23 24 25 26 27 28 29 30 31 32 33 34 35 36 37 38 39 40 41 42 43 44 45 46 47 48 49 50
000
NZUS93 KARX 262010
HRRWXR

CURRENT HOURLY OBSERVATIONS ACROSS
MUCH OF THE UPPER MISSISSIPPI VALLEY
NATIONAL WEATHER SERVICE LA CROSSE WI
200 PM CST SUN FEB 26 2017


...SOUTHEAST MINNESOTA...


CITY           SKY/WX    TMP DP  RH WIND       PRES   REMARKS
ROCHESTER      SUNNY     30  24  78 W15       29.83R WCI  19
ROCHESTER/MAYO MOCLDY    32  23  70 W9G22     29.84R WCI  24
WINONA         CLOUDY    36  25  64 W6        29.84S WCI  31
AUSTIN         SUNNY     30  21  69 W10       29.85S WCI  21
ALBERT LEA     SUNNY     30  23  74 SW8       29.85S WCI  23
DODGE CENTER   NOT AVBL
PRESTON        SUNNY     31  22  68 W12       29.85R WCI  22
OWATONNA       SUNNY     34  25  69 SW10      29.84R WCI  26
FARIBAULT      MOSUNNY   37  25  60 SW12      29.83R WCI  30
$$

...ELSEWHERE IN MINNESOTA...


CITY           SKY/WX    TMP DP  RH WIND       PRES   REMARKS
MINNEAPOLIS    PTSUNNY   38  16  40 W22G31    29.79S WCI  27
INTNL FALLS    MOSUNNY   17   0  47 W12       29.77R WCI   4
DULUTH         MOSUNNY   21   3  45 NW16G23   29.73R WCI   7
RED WING       MOSUNNY   36  21  55 W15       29.80F WCI  26
REDWOOD FALLS  SUNNY     34  16  47 NW10      29.86R WCI  26
MANKATO          N/A     37  23  56 W15       29.83F WCI  28
WORTHINGTON    MOSUNNY   34  27  75 W12       29.85F WCI  25
FAIRMONT       SUNNY     34  25  69 SW10      29.86S WCI  26
$$

...SOUTHWEST WISCONSIN...


CITY           SKY/WX    TMP DP  RH WIND       PRES   REMARKS
LA CROSSE      PTSUNNY   40  25  55 SW14      29.83S WCI  32
PRAIRIE DU CHI SUNNY     42  26  53 SW12G17   29.87R
BOSCOBEL       SUNNY     42  25  50 SW15G22   29.86F
LONE ROCK      SUNNY     41  27  57 W13       29.86S
PLATTEVILLE    SUNNY     42  30  63 SW17      29.87S
FORT MC COY    MOSUNNY   40  24  54 SW15G22   29.82S WCI  31
CAMP DOUGLAS   PTSUNNY   39  23  52 W16G24    29.80S WCI  30
MAUSTON-NEW LI CLEAR     39  23  52 W9G24     29.81R WCI  33
VIROQUA        FAIR      37  25  60 W14G20    29.83R WCI  28
WIS DELLS      SUNNY     38  23  55 SW15G23   29.82S WCI  30
$$

...ELSEWHERE IN WISCONSIN...


CITY           SKY/WX    TMP DP  RH WIND       PRES   REMARKS
MILWAUKEE      MOSUNNY   44  23  43 SW20G32   29.87F
MADISON        MOSUNNY   39  25  57 W10G18    29.85F WCI  32
GREEN BAY      SUNNY     38  25  59 SW13G21   29.77S WCI  30
EAU CLAIRE     SUNNY     33  22  63 W14       29.78S WCI  23
BLACK RVR FLS  CLOUDY    38  16  40 SW6       29.80S WCI  34
MEDFORD        PTSUNNY   32  21  63 SW14      29.73R WCI  22
WAUSAU         CLOUDY    33  22  63 W13       29.73S WCI  24
WIS RAPIDS     CLOUDY    38  18  44 W15G28    29.78S WCI  29
MARSHFIELD     CLOUDY    34  19  54 W15       29.75R WCI  24
RICE LAKE      FLURRIES  34  21  59 W14G23    29.76R WCI  25
$$

...NORTHEAST IOWA...


CITY           SKY/WX    TMP DP  RH WIND       PRES   REMARKS
WATERLOO       SUNNY     39  25  57 SW22      29.89S WCI  29
DUBUQUE        SUNNY     42  27  55 W20G28    29.87F
DECORAH        SUNNY     36  25  64 W14G22    29.85S WCI  27
MASON CITY     SUNNY     30  21  69 W16       29.89R WCI  19
CHARLES CITY   SUNNY     32  25  74 SW15      29.88S WCI  22
OELWEIN        SUNNY     39  30  70 W17       29.88S WCI  30
$$

...ELSEWHERE IN IOWA...


CITY           SKY/WX    TMP DP  RH WIND       PRES   REMARKS
DES MOINES     MOSUNNY   48  25  40 W17G28    29.92R
IOWA CITY      MOSUNNY   52  24  33 W24G31    29.92F
FORT DODGE     SUNNY     32  19  59 SW9       29.92R WCI  24
MARSHALLTOWN   SUNNY     42  26  53 W18       29.89F
CEDAR RAPIDS   SUNNY     48  27  44 W20G28    29.89F
$$

...NORTHERN ILLINOIS...


CITY           SKY/WX    TMP DP  RH WIND       PRES   REMARKS
CHICAGO-OHARE  MOSUNNY   47  20  34 SW24G35   29.92F
CHICAGO-MIDWAY MOSUNNY   48  19  31 SW22G35   29.94F
MOLINE         SUNNY     52  21  29 W20       29.92F
ROCKFORD       MOSUNNY   47  22  37 W18G25    29.92F
PEORIA         SUNNY     50  20  30 SW20      29.98F
$$

NOTE: "FAIR" INDICATES FEW OR NO CLOUDS BELOW 12,000 FEET WITH NO
SIGNIFICANT WEATHER AND/OR OBSTRUCTIONS TO VISIBILITY. WIND
SPEEDS ARE IN MILES-PER-HOUR.




USA.gov is the U.S. government's official web portal to all federal, state and local government web resources and services.